STARLINK-35991, 66861

Orbit data source: Space-Track

STARLINK-35991, 66861 is a payload satellite owned by SpaceX/Seattle (US) in LEO that was launched on Tue, 02 Dec 2025 UTC via an FALCON 9 launch vehicle from the Air Force Eastern Test Range (AFETR). Payload-class satellites include a variety of spacecraft equipped with specific instruments for various scientific and technological missions. These include communications satellites like Starlink; space stations such as the ISS; scientific satellites like the Hubble; Earth observation satellites from companies like Planet Labs, Umbra, and HawkEye 360; GPS; miniature CubeSats for education and research; and military/defense satellites.

Loading next visibility...
Identifier
66861, 2025-281P
Orbit
LEO
Country
Flag of USUS
Related business
Manufacturer
SpaceX/Seattle
Mission
Operational Commercial Communications
Bus & Motor
STARLINK V2MO, Unknown motor
Mass
575 kg wet, ~530 kg dry
Launch date (UTC)
2025-12-02 (7 months ago)
Launch vehicle
FALCON 9
Launch site
Air Force Eastern Test Range (AFETR)
Object type
Payload
Rocket body
Debris
Shape & HBR
Box + 2 Pan, 17.7 m
Radar Cross Section
36.964 m², Large (>1 m²)

Expand to show TLE details & history
Last TLE update: 14 hours ago

TLE from 14 hours ago
0 STARLINK-35991
1 66861U 25281P   26171.24654244  .00017609  00000-0  64731-3 0  9990
2 66861  43.0023 123.9964 0001509 270.7332  89.3346 15.27608896 31878
Epoch: 2026-06-20T05:55Z
TLE epoch observation values (Epoch: 2026-06-20T05:55:01.266Z)
Latitude
-0.00009°
Longitude
126.77712°
Altitude
482.726 km
Speed
7.626 km/s
True Right ascension
08h 15m 59s
True Declination
0° 00' 00"
Sunlit
Object was in daylight at epoch
Visualization orbit readout
Latitude
Unknown
Longitude
Unknown
Altitude
Unknown
Speed
Unknown
Apparent Right ascension
Unknown
Apparent Declination
Unknown
Sunlit
N/A
Visualization observer readout
Local Sidereal Time
07:18:10
Azimuth
Unknown
Elevation
Unknown
Doppler factor
Unknown
Orbital elements
Apogee altitude
485.943 km
Perigee altitude
483.872 km
Semi-major axis
6,863.044 km
Eccentricity
0.00015
Inclination
43.0023°
RAAN
123.9964°
Arg. of periapsis
270.7332°
True anomaly
89.35189°
Mean anomaly
89.3346°
Eccentric anomaly
89.34325°
Mean motion
3.8174 °/min
Orbital period
94.3 mins
BSTAR
0.00064731
Loading maneuver chart data...
Computing Atmospheric mass density...
Loading historical data...
Loading historical data...
Loading historical data...
Loading historical data...
Loading historical data...
Loading historical data...
Loading historical data...

Documentation

Showing up to 5 results
|